User: anonymous   Login
Location: Highridge
(54.0333°N, 114.1333°W)
Time: 23:35:28
(UTC+00:00)
Language:

TIGRISAT - Orbit

View from above orbital plane
View from above orbital plane
View from above satellite
View from above satellite

Ground track
Ground track

The orbit data is extracted from the following two-line orbital elements,

1 40043U 14033AK  24285.39769975  .00047461  00000-0  60482-2 0  9992
2 40043  97.7086  83.2926 0052899 285.0490  74.4873 14.80324463554643
Epoch (UTC): 11 October 2024 09:32:41
Eccentricity: 0.0052899
inclination: 97.7086°
perigee height: 591 km
apogee height: 665 km
right ascension of ascending node: 83.2926°
argument of perigee: 285.0490°
revolutions per day: 14.80324463
mean anomaly at epoch: 74.4873°
orbit number at epoch: 55464

The dashed part of the orbit path shows where the satellite is in the earth's shadow,  

DLR